SOAR

Last updated on Mon Mar 14 2022 00:02:05 GMT+0000 (Coordinated Universal Time)

1 48851U 98067SM 22072.17167880 .03631518 29469-1 31842-2 0 9995 2 48851 51.6171 65.6763 0005387 124.7388 235.4136 16.16203449 42554

Satellite not in orbit